Flag Weather past 2 weeks in Nashville, Tennessee, U.S.A.

Now
38 °F

Clear.


Feels Like: 33 °F
Forecast: 30 / 49 °F
Wind: 6 mph from Northwest

Location: Nashville International Airport

Current Time: Nov 25, 2014 at 11:50:32 PM

Latest Report: Nov 25, 2014 at 10:53 PM


Visibility: 10 mi

Pressure: 30.16 "Hg

Humidity: 65%

Dew point: 27 °F

Location of NashvilleLocation

Historic Weather in Nashville — Graph

°F

Nashville temperature yesterday

Maximum temperature yesterday: 63 °F (at 1:53 AM)
Minimum temperature yesterday: 39 °F (at 11:53 PM)
Average temperature yesterday: 56 °F

Past Weeks' High & Low Weather Summary

 TemperatureHumidityPressure
High69 °F (Nov 11, 10:53 AM)97% (Nov 11, 6:53 PM)30.48 "Hg (Nov 11, 6:53 PM)
Low19 °F (Nov 18, 10:53 PM)27% (Nov 20, 2:53 PM)29.36 "Hg (Nov 23, 6:53 PM)
Average41 °F63%30.16 "Hg
* Reported Nov 10 9:53 PM — Nov 25 9:53 PM, Nashville, Weather by CustomWeather, © 2014

Note: Actual official high and low records may vary slightly from our data, if they occured in-between our weather recording intervals... More about our weather records

Advertising

Nashville weather history for previous 24 hours

 ConditionsComfort  
Time TempWeatherWind HumidityBarometerVisibility
9:53 PM
Nov 25
40 °FPassing clouds.3 mph60%30.16 "Hg10 mi
8:53 PM42 °FOvercast.6 mph55%30.17 "Hg10 mi
7:53 PM43 °FOvercast.7 mph56%30.16 "Hg10 mi
6:53 PM44 °FOvercast.7 mph49%30.16 "Hg10 mi
5:53 PM44 °FOvercast.5 mph49%30.16 "Hg10 mi
4:53 PM45 °FMostly cloudy.7 mph45%30.13 "Hg10 mi
3:53 PM48 °FMostly cloudy.6 mph41%30.12 "Hg10 mi
2:53 PM50 °FPartly sunny.7 mph39%30.12 "Hg10 mi
1:53 PM50 °FMostly cloudy.6 mph39%30.13 "Hg10 mi
12:53 PM51 °FMostly cloudy.6 mph38%30.13 "Hg10 mi
11:53 AM51 °FBroken clouds.8 mph41%30.15 "Hg10 mi
10:53 AM48 °FBroken clouds.7 mph48%30.19 "Hg10 mi
9:53 AM45 °FScattered clouds.6 mph56%30.19 "Hg10 mi
8:53 AM42 °FScattered clouds.10 mph62%30.18 "Hg10 mi
7:53 AM40 °FPassing clouds.7 mph73%30.16 "Hg10 mi
6:53 AM35 °FPassing clouds.3 mph82%30.15 "Hg10 mi
5:53 AM34 °FPassing clouds.No wind85%30.12 "Hg10 mi
4:53 AM34 °FClear.3 mph88%30.10 "Hg10 mi
3:53 AM36 °FClear.No wind82%30.09 "Hg10 mi
2:53 AM39 °FClear.No wind73%30.08 "Hg10 mi
1:53 AM41 °FClear.3 mph67%30.07 "Hg10 mi
12:53 AM42 °FClear.3 mph65%30.05 "Hg10 mi
11:53 PM
Nov 24
39 °FClear.7 mph76%30.05 "Hg10 mi
Weather by CustomWeather, © 2014

See weather overviewHow to use our weather pages